EN

Hourly Weather Dziupla

Today, 26 October, Monday

Time Temperature Precipitation Wind Pressure Humidity
00:00 +11°C° 0 mm 4 mps 739 mmHg 87%
01:00 +11°C° 0 mm 4 mps 739 mmHg 88%
02:00 +10°C° 0 mm 4 mps 739 mmHg 89%
03:00 +10°C° 0 mm 4 mps 739 mmHg 91%
04:00 +8°C° 0 mm 4 mps 739 mmHg 92%
05:00 +9°C° 0 mm 3 mps 738 mmHg 93%
06:00 +9°C° 0 mm 3 mps 738 mmHg 94%
07:00 +8°C° 0 mm 2 mps 738 mmHg 95%
08:00 +9°C° 0 mm 2 mps 738 mmHg 91%
09:00 +10°C° 0 mm 3 mps 738 mmHg 87%
10:00 +11°C° 0 mm 3 mps 738 mmHg 83%
11:00 +12°C° 0 mm 3 mps 738 mmHg 80%
12:00 +13°C° 0 mm 3 mps 738 mmHg 77%
13:00 +14°C° 0 mm 3 mps 738 mmHg 75%
14:00 +14°C° 0 mm 2 mps 738 mmHg 77%
15:00 +14°C° 0 mm 2 mps 737 mmHg 80%
16:00 +13°C° 0 mm 2 mps 737 mmHg 83%
17:00 +13°C° 0.3 mm 2 mps 738 mmHg 86%
18:00 +12°C° 0.3 mm 2 mps 738 mmHg 89%
19:00 +12°C° 0.3 mm 2 mps 738 mmHg 92%
20:00 +12°C° 0.3 mm 2 mps 738 mmHg 93%
21:00 +10°C° 0.3 mm 2 mps 738 mmHg 93%
22:00 +10°C° 0.3 mm 2 mps 738 mmHg 94%
23:00 +10°C° 0 mm 2 mps 739 mmHg 94%

Tomorrow, 27 October, Tuesday

Time Temperature Precipitation Wind Pressure Humidity
00:00 +11°C° 0 mm 1 mps 739 mmHg 93%
01:00 +10°C° 0 mm 1 mps 739 mmHg 93%
02:00 +10°C° 0 mm 1 mps 739 mmHg 92%
03:00 +10°C° 0 mm 1 mps 739 mmHg 92%
04:00 +10°C° 0 mm 1 mps 739 mmHg 91%
05:00 +9°C° 0 mm 1 mps 739 mmHg 90%
06:00 +9°C° 0 mm 1 mps 740 mmHg 90%
07:00 +9°C° 0 mm 1 mps 740 mmHg 89%
08:00 +10°C° 0 mm 1 mps 740 mmHg 85%
09:00 +11°C° 0 mm 1 mps 740 mmHg 81%
10:00 +12°C° 0 mm 1 mps 740 mmHg 76%
11:00 +12°C° 0 mm 2 mps 740 mmHg 76%
12:00 +12°C° 0 mm 2 mps 740 mmHg 75%
13:00 +12°C° 0 mm 2 mps 740 mmHg 75%
14:00 +12°C° 0.3 mm 2 mps 740 mmHg 79%
15:00 +10°C° 0.3 mm 2 mps 740 mmHg 83%
16:00 +9°C° 0.3 mm 2 mps 740 mmHg 87%
17:00 +9°C° 0.2 mm 2 mps 740 mmHg 88%
18:00 +9°C° 0.2 mm 2 mps 740 mmHg 88%
19:00 +9°C° 0.2 mm 2 mps 741 mmHg 89%
20:00 +9°C° 0 mm 2 mps 741 mmHg 88%
21:00 +9°C° 0 mm 3 mps 741 mmHg 87%
22:00 +9°C° 0 mm 3 mps 741 mmHg 86%
23:00 +8°C° 0 mm 3 mps 741 mmHg 88%

Day after tomorrow, 28 October, Wednesday

Time Temperature Precipitation Wind Pressure Humidity
00:00 +8°C° 0 mm 3 mps 741 mmHg 90%
01:00 +7°C° 0 mm 3 mps 741 mmHg 92%
02:00 +7°C° 0 mm 3 mps 741 mmHg 92%
03:00 +6°C° 0 mm 4 mps 741 mmHg 92%
04:00 +5°C° 0 mm 4 mps 741 mmHg 91%
05:00 +5°C° 0 mm 4 mps 741 mmHg 91%
06:00 +5°C° 0 mm 4 mps 741 mmHg 90%
07:00 +5°C° 0 mm 4 mps 741 mmHg 89%
08:00 +6°C° 0 mm 5 mps 741 mmHg 84%
09:00 +7°C° 0 mm 5 mps 741 mmHg 79%
10:00 +8°C° 0 mm 6 mps 741 mmHg 73%
11:00 +9°C° 0 mm 6 mps 741 mmHg 71%
12:00 +9°C° 0 mm 6 mps 741 mmHg 70%
13:00 +10°C° 0 mm 6 mps 741 mmHg 68%
14:00 +9°C° 0 mm 5 mps 741 mmHg 71%
15:00 +9°C° 0 mm 5 mps 741 mmHg 74%
16:00 +8°C° 0 mm 5 mps 741 mmHg 76%
17:00 +8°C° 0.1 mm 5 mps 741 mmHg 77%
18:00 +8°C° 0.1 mm 4 mps 741 mmHg 77%
19:00 +8°C° 0.1 mm 4 mps 741 mmHg 77%
20:00 +8°C° 0 mm 4 mps 741 mmHg 79%
21:00 +7°C° 0 mm 4 mps 741 mmHg 81%
22:00 +7°C° 0 mm 4 mps 741 mmHg 82%
23:00 +7°C° 0 mm 4 mps 741 mmHg 83%

29 October, Thursday

Time Temperature Precipitation Wind Pressure Humidity
00:00 +7°C° 0 mm 4 mps 741 mmHg 84%
01:00 +7°C° 0 mm 4 mps 741 mmHg 85%
02:00 +7°C° 0 mm 4 mps 741 mmHg 85%
03:00 +6°C° 0 mm 4 mps 741 mmHg 85%
04:00 +6°C° 0 mm 4 mps 740 mmHg 86%
05:00 +6°C° 0 mm 4 mps 740 mmHg 86%
06:00 +7°C° 0 mm 4 mps 740 mmHg 86%
07:00 +7°C° 0 mm 4 mps 740 mmHg 86%
08:00 +7°C° 0.1 mm 5 mps 741 mmHg 86%
09:00 +8°C° 0.1 mm 5 mps 741 mmHg 85%
10:00 +8°C° 0.1 mm 5 mps 741 mmHg 85%
11:00 +9°C° 0.2 mm 5 mps 741 mmHg 78%
12:00 +10°C° 0.2 mm 6 mps 742 mmHg 72%
13:00 +10°C° 0.2 mm 6 mps 742 mmHg 66%
14:00 +10°C° 0.1 mm 5 mps 742 mmHg 69%
15:00 +9°C° 0.1 mm 5 mps 742 mmHg 71%
16:00 +10°C° 0.1 mm 4 mps 743 mmHg 74%
17:00 +8°C° 0 mm 4 mps 743 mmHg 76%
18:00 +8°C° 0 mm 4 mps 743 mmHg 79%
19:00 +7°C° 0 mm 4 mps 744 mmHg 81%
20:00 +7°C° 0 mm 4 mps 744 mmHg 81%
21:00 +7°C° 0 mm 4 mps 744 mmHg 81%
22:00 +7°C° 0 mm 4 mps 744 mmHg 81%
23:00 +7°C° 0 mm 5 mps 744 mmHg 80%

30 October, Friday

Time Temperature Precipitation Wind Pressure Humidity
00:00 +7°C° 0 mm 5 mps 744 mmHg 80%
01:00 +7°C° 0 mm 6 mps 744 mmHg 79%
02:00 +8°C° 0.1 mm 6 mps 743 mmHg 81%
03:00 +8°C° 0.1 mm 6 mps 743 mmHg 82%
04:00 +8°C° 0.1 mm 7 mps 743 mmHg 84%
05:00 +8°C° 0.3 mm 7 mps 743 mmHg 85%
06:00 +9°C° 0.3 mm 6 mps 743 mmHg 87%
07:00 +10°C° 0.3 mm 6 mps 743 mmHg 88%
08:00 +10°C° 0 mm 6 mps 743 mmHg 87%
09:00 +10°C° 0 mm 6 mps 743 mmHg 86%
10:00 +11°C° 0 mm 6 mps 744 mmHg 86%
11:00 +11°C° 0 mm 6 mps 744 mmHg 85%
12:00 +11°C° 0 mm 6 mps 744 mmHg 84%
13:00 +11°C° 0 mm 6 mps 744 mmHg 83%
14:00 +13°C° 0.1 mm 6 mps 744 mmHg 83%
15:00 +13°C° 0.1 mm 5 mps 745 mmHg 82%
16:00 +13°C° 0.1 mm 5 mps 745 mmHg 81%
17:00 +12°C° 0 mm 5 mps 745 mmHg 81%
18:00 +12°C° 0 mm 5 mps 745 mmHg 80%
19:00 +12°C° 0 mm 5 mps 745 mmHg 80%
20:00 +12°C° 0 mm 5 mps 745 mmHg 80%
21:00 +12°C° 0 mm 5 mps 745 mmHg 81%
22:00 +10°C° 0 mm 5 mps 746 mmHg 81%
23:00 +11°C° 0 mm 4 mps 746 mmHg 83%

31 October, Saturday

Time Temperature Precipitation Wind Pressure Humidity
00:00 +11°C° 0 mm 4 mps 746 mmHg 84%
01:00 +10°C° 0 mm 3 mps 746 mmHg 86%
02:00 +10°C° 0 mm 3 mps 746 mmHg 88%
03:00 +9°C° 0 mm 3 mps 746 mmHg 89%
04:00 +9°C° 0 mm 3 mps 746 mmHg 91%
05:00 +9°C° 0 mm 3 mps 746 mmHg 92%
06:00 +9°C° 0 mm 3 mps 746 mmHg 92%
07:00 +9°C° 0 mm 3 mps 746 mmHg 93%
Show more